This demonstration page uses our WeatherBlox Daily Observations layout. Learn more.

Left ArrowRight Arrow

Hourly Observations for June 26, 2017

Temp ( °F °C ) Dew Point ( °F °C ) Humidity (%) Winds ( mph kmh ) Pressure ( in mb ) Visibility ( mi km ) Precip ( " mm )
12:52 am 00:52 Cloudy 68 20 58 14.4 70 70 N 6 9 30.20 1023 10 16 0.00 0.00
1:52 am 01:52 Cloudy 68 20 55 12.8 63 63 NE 5 7 30.19 1022 10 16 0.00 0.00
2:52 am 02:52 Cloudy 66 18.9 57 13.9 73 73 N 5 7 30.20 1023 10 16 0.00 0.00
3:52 am 03:52 Cloudy 65 18.3 57 13.9 76 76 N 8 13 30.22 1023 10 16 0.00 0.00
4:52 am 04:52 Cloudy 62 16.7 57 13.9 84 84 NE 7 11 30.23 1024 10 16 0.00 0.00
5:52 am 05:52 Cloudy 61 16.1 58 14.4 90 90 ESE 7 11 30.21 1023 10 16 0.00 0.00
6:52 am 06:52 Cloudy 62 16.7 58 14.4 86 86 S 5 7 30.21 1023 10 16 0.00 0.00
7:52 am 07:52 Mostly Cloudy 65 18.3 60 15.6 84 84 S 7 11 30.19 1022 10 16 0.00 0.00
8:52 am 08:52 Partly Cloudy 68 20 60 15.6 76 76 S 5 7 30.20 1023 10 16 0.00 0.00
9:52 am 09:52 Mostly Cloudy 70 21.1 61 16.1 73 73 Calm 30.19 1023 10 16 0.00 0.00
10:52 am 10:52 Sunny 71 21.7 61 16.1 71 71 S 5 7 30.19 1022 10 16 0.00 0.00
11:52 am 11:52 Cloudy 71 21.7 60 15.6 68 68 S 8 13 30.17 1022 10 16 0.00 0.00
12:52 pm 12:52 Cloudy 72 22.2 61 16.1 68 68 SSE 6 9 30.16 1021 10 16 0.00 0.00
1:52 pm 13:52 Mostly Cloudy 74 23.3 61 16.1 64 64 S 8 13 30.13 1020 10 16 0.00 0.00
2:52 pm 14:52 Cloudy 73 22.8 61 16.1 66 66 S 7 11 30.12 1020 10 16 0.00 0.00
3:52 pm 15:52 Cloudy 73 22.8 63 17.2 71 71 N 13 20 30.11 1020 10 16 0.00 0.03
4:10 pm 16:10 Cloudy with Light Rain 68 20 66 18.9 93 93 NE 16 26 30.12 1020 3 5 0.06 1.52
4:42 pm 16:42 Mostly Cloudy 68 20 66 18.9 93 93 NE 12 19 30.12 1020 10 16 0.06 1.52
4:52 pm 16:52 Mostly Cloudy 67 19.4 65 18.3 93 93 NE 13 20 30.12 1020 10 16 0.06 1.52
5:52 pm 17:52 Mostly Cloudy 67 19.4 61 16.1 81 81 ENE 16 26 30.10 1019 10 16 0.00 0.00
6:52 pm 18:52 Mostly Cloudy 68 20 58 14.4 70 70 E 7 11 30.10 1019 10 16 0.00 0.00
7:52 pm 19:52 Mostly Cloudy 66 18.9 57 13.9 73 73 E 13 20 30.08 1019 10 16 0.00 0.00
8:52 pm 20:52 Cloudy 65 18.3 58 14.4 78 78 SE 12 19 30.07 1018 10 16 0.00 0.00
9:52 pm 21:52 Cloudy with Light Rain 64 17.8 58 14.4 81 81 E 9 15 30.08 1019 10 16 0.01 0.25
10:32 pm 22:32 Cloudy with Nearby Thunderstorms 62 16.7 59 15 90 90 SE 14 22 30.09 1019 10 16 0.02 0.51
10:52 pm 22:52 Cloudy with Nearby Thunderstorms 62 16.7 60 15.6 93 93 ENE 8 13 30.10 1019 10 16 0.02 0.51
10:55 pm 22:55 Cloudy with Thunderstorms 62 16.7 60 15.6 93 93 N 16 26 30.12 1020 10 16 0.00 0.03
11:19 pm 23:19 Cloudy with Strong Thunderstorms 61 16.1 60 15.6 97 97 NW 5 7 30.15 1021 2 3 0.13 3.30
11:22 pm 23:22 Cloudy with Strong Thunderstorms 61 16.1 60 15.6 97 97 NNW 3 6 30.15 1021 2 2 0.19 4.83
11:30 pm 23:30 Cloudy with Strong Thunderstorms 61 16.1 60 15.6 97 97 NNE 5 7 30.15 1021 1 2 0.31 7.87
11:34 pm 23:34 Cloudy with Strong Thunderstorms 64 17.8 60 15.6 87 87 N 7 11 30.12 1020 2 3 0.34 8.64
11:45 pm 23:45 Cloudy with Strong Thunderstorms 62 16.7 61 16.1 96 96 S 20 31 30.15 1021 1 2 0.58 14.73
11:52 pm 23:52 Mostly Cloudy with Strong Thunderstorms 61 16.1 61 16.1 100 100 S 10 17 30.13 1020 2 3 0.74 18.80
11:56 pm 23:56 Cloudy with Strong Thunderstorms 62 16.7 61 16.1 96 96 SSW 7 11 30.15 1021 3 5 0.02 0.51

Powered by AerisWeather